STARLINK-35208

Last updated on Mon Oct 20 2025 00:02:07 GMT+0000 (Coordinated Universal Time)

1 65854U 25223A 25292.25002315 -.01909385 00000+0 -21824-1 0 9994 2 65854 53.1598 235.0146 0001104 83.2213 8.2890 15.64691287 3736
UTC large
Height (km)
Speed (km/s)
/
Latitude / Longitude
Inclination (degrees)
Orbital Period (minutes)
Azimuth
Elevation
Range (km)
Doppler Factor

Next 0 passes for location: London (51.5072 / 0.1276)

Sorry there are no passes over London.